Location: Narragansett
(41.4496°N, 71.4488°W)
Time: 18:40:08
(UTC+00:00)

Nauka - Pass Details

Date: 26 September 2021
Orbit: 417 x 423 km, 51.6° (Epoch: 26 October)

Event Time Altitude Azimuth Distance (km) Brightness Sun altitude
Rises 00:22:58 0° 303° (WNW) 2,365 ? -20.4°
Reaches altitude 10° 00:25:45 10° 328° (NNW) 1,502 ? -20.9°
Maximum altitude 00:27:47 15° 5° (N) 1,238 ? -21.2°
Enters shadow 00:28:09 15° 13° (NNE) 1,247 ? -21.3°
